GW3397 Weather Reports


Display with metric or nautical units.
time (UTC)temp
F
wind
direction
speed
MPH
gust
MPH
rain 1hr
in
rain 24hr
in
rain mn
in
humidity
%
barometer
mb
20260904174254 77 283 8.0 13.0 0.00 0.00 0.00 70 1017.4
20260904173749 77 308 7.0 9.0 0.00 0.00 0.00 71 1017.4
20260904173244 77 265 3.0 8.0 0.00 0.00 0.00 73 1017.6
20260904172741 76 9 7.0 9.0 0.00 0.00 0.00 73 1017.7
20260904172239 76 319 4.0 11.0 0.00 0.00 0.00 72 1017.6
20260904171734 76 320 5.0 8.0 0.00 0.00 0.00 74 1017.9
20260904171229 75 347 4.0 10.0 0.00 0.00 0.00 76 1017.9
20260904170725 73 321 3.0 9.0 0.00 0.00 0.00 76 1018.0
20260904170221 74 304 3.0 8.0 0.00 0.00 0.00 75 1017.7
20260904165720 74 307 5.0 8.0 0.00 0.00 0.00 76 1017.9
20260904165215 75 298 7.0 9.0 0.00 0.00 0.00 74 1017.5
20260904164709 75 223 3.0 10.0 0.00 0.00 0.00 71 1017.6
20260904164204 75 305 7.0 8.0 0.00 0.00 0.00 73 1017.9
20260904163700 75 302 4.0 7.0 0.00 0.00 0.00 73 1017.6
20260904163155 76 333 3.0 7.0 0.00 0.00 0.00 74 1017.7
20260904162654 76 356 5.0 8.0 0.00 0.00 0.00 72 1017.8
20260904162149 75 300 5.0 7.0 0.00 0.00 0.00 72 1017.9
20260904161645 76 9 7.0 8.0 0.00 0.00 0.00 71 1017.9
20260904161140 75 339 4.0 5.0 0.00 0.00 0.00 76 1017.9
20260904160636 74 281 3.0 7.0 0.00 0.00 0.00 75 1018.1
20260904160131 75 288 5.0 10.0 0.00 0.00 0.00 75 1018.0
20260904155626 75 240 6.0 9.0 0.00 0.00 0.00 75 1018.2
20260904155120 75 321 7.0 8.0 0.00 0.00 0.00 76 1018.1
20260904154614 75 340 5.0 8.0 0.00 0.00 0.00 75 1018.1
20260904154113 74 306 4.0 11.0 0.00 0.00 0.00 73 1018.1
20260904153608 74 4 6.0 7.0 0.00 0.00 0.00 76 1018.2
20260904153104 74 304 5.0 9.0 0.00 0.00 0.00 76 1018.3
20260904152600 74 44 6.0 8.0 0.00 0.00 0.00 77 1018.5
20260904152055 74 297 3.0 3.0 0.00 0.00 0.00 79 1018.5
20260904151550 73 320 5.0 11.0 0.00 0.00 0.00 77 1018.3
20260904151049 74 339 3.0 8.0 0.00 0.00 0.00 78 1018.2
20260904150544 74 292 1.0 3.0 0.00 0.00 0.00 81 1018.2
20260904150039 74 321 4.0 6.0 0.00 0.00 0.00 80 1018.6
20260904145538 73 299 1.0 5.0 0.00 0.00 0.00 82 1018.6
20260904145033 73 294 5.0 5.0 0.00 0.00 0.00 83 1018.7
20260904144529 73 350 4.0 6.0 0.00 0.00 0.00 83 1018.5
20260904144025 72 355 3.0 8.0 0.00 0.00 0.00 84 1018.9
20260904143520 72 291 6.0 7.0 0.00 0.00 0.00 84 1018.6
20260904143017 71 312 5.0 7.0 0.00 0.00 0.00 85 1018.6
20260904142514 72 332 5.0 7.0 0.00 0.00 0.00 84 1018.9
20260904142013 72 318 3.0 8.0 0.00 0.00 0.00 85 1019.0
20260904141509 72 316 4.0 8.0 0.00 0.00 0.00 87 1018.6
20260904141004 72 320 6.0 8.0 0.00 0.00 0.00 87 1018.7
20260904140459 71 318 3.0 10.0 0.00 0.00 0.00 88 1018.5
20260904135957 71 329 3.0 5.0 0.00 0.00 0.00 88 1018.3
20260904135452 71 282 5.0 8.0 0.00 0.00 0.00 88 1018.3
20260904134948 70 320 5.0 7.0 0.00 0.00 0.00 90 1018.5
20260904134443 70 310 6.0 9.0 0.00 0.00 0.00 91 1018.4
20260904133937 70 323 6.0 8.0 0.00 0.00 0.00 91 1018.3
20260904133432 70 322 4.0 6.0 0.00 0.00 0.00 92 1018.3
20260904132928 69 292 6.0 8.0 0.00 0.00 0.00 91 1018.4
20260904132423 70 347 6.0 9.0 0.00 0.00 0.00 90 1018.3
20260904131922 70 336 7.0 8.0 0.00 0.00 0.00 91 1018.7
20260904131418 69 289 3.0 10.0 0.00 0.00 0.00 91 1018.6
20260904130914 69 321 5.0 8.0 0.00 0.00 0.00 92 1018.4
20260904130412 69 277 4.0 5.0 0.00 0.00 0.00 92 1018.4
20260904125907 69 283 3.0 8.0 0.00 0.00 0.00 92 1018.4
20260904125404 69 306 4.0 7.0 0.00 0.00 0.00 93 1018.4
20260904124903 68 299 6.0 7.0 0.00 0.00 0.00 93 1018.5
20260904124400 69 4 2.0 3.0 0.00 0.00 0.00 93 1018.5
20260904123855 68 307 3.0 3.0 0.00 0.00 0.00 94 1018.3
20260904123349 68 318 3.0 3.0 0.00 0.00 0.00 94 1018.4
20260904122844 67 283 2.0 5.0 0.00 0.00 0.00 95 1018.6
20260904122338 66 275 3.0 5.0 0.00 0.00 0.00 96 1018.5
20260904121834 66 328 5.0 7.0 0.00 0.00 0.00 97 1018.5
20260904121330 66 283 2.0 3.0 0.00 0.00 0.00 98 1018.9
20260904120826 66 314 4.0 5.0 0.00 0.00 0.00 98 1018.7
20260904120322 66 313 1.0 2.0 0.00 0.00 0.00 98 1018.5
20260904115816 65 300 0.0 1.0 0.00 0.00 0.00 98 1018.7
20260904115312 65 246 1.0 1.0 0.00 0.00 0.00 98 1018.6
20260904114812 64 299 1.0 1.0 0.00 0.00 0.00 98 1018.6
20260904114306 64 299 1.0 1.0 0.00 0.00 0.00 98 1018.7
20260904113802 64 312 1.0 1.0 0.00 0.00 0.00 98 1018.5
20260904113300 63 281 0.0 1.0 0.00 0.00 0.00 98 1018.5
20260904112755 63 312 0.0 1.0 0.00 0.00 0.00 98 1018.6
20260904112251 63 300 0.0 0.0 0.00 0.00 0.00 98 1018.2
20260904111747 63 279 0.0 0.0 0.00 0.00 0.00 98 1018.4
20260904111242 62 285 0.0 0.0 0.00 0.00 0.00 99 1018.2
20260904110738 62 287 0.0 0.0 0.00 0.00 0.00 98 1018.3
20260904110237 61 276 0.0 0.0 0.00 0.00 0.00 98 1018.3
20260904105732 61 250 0.0 0.0 0.00 0.00 0.00 98 1018.2
20260904105227 61 220 0.0 0.0 0.00 0.00 0.00 98 1018.0
20260904104722 60 350 0.0 0.0 0.00 0.00 0.00 98 1018.0
20260904104218 60 335 0.0 0.0 0.00 0.00 0.00 98 1017.9
20260904103715 61 344 0.0 0.0 0.00 0.00 0.00 98 1018.0
20260904103209 62 344 0.0 0.0 0.00 0.00 0.00 98 1017.9
20260904102705 62 218 0.0 0.0 0.00 0.00 0.00 98 1017.7
20260904102200 61 213 0.0 0.0 0.00 0.00 0.00 98 1017.7
20260904101657 61 209 0.0 0.0 0.00 0.00 0.00 98 1017.7
20260904101152 61 222 0.0 0.0 0.00 0.00 0.00 99 1017.7
20260904100648 60 218 0.0 0.0 0.00 0.00 0.00 99 1017.8
20260904100143 59 163 0.0 0.0 0.00 0.00 0.00 98 1017.7
20260904095643 59 179 0.0 0.0 0.00 0.00 0.00 98 1017.5
20260904095137 59 240 0.0 0.0 0.00 0.00 0.00 98 1017.6
20260904094632 59 281 0.0 0.0 0.00 0.00 0.00 98 1017.6
20260904094127 59 282 0.0 0.0 0.00 0.00 0.00 98 1017.3
20260904093624 59 286 0.0 0.0 0.00 0.00 0.00 98 1017.3
20260904093124 60 281 0.0 0.0 0.00 0.00 0.00 98 1017.2
20260904092620 60 274 0.0 0.0 0.00 0.00 0.00 98 1017.3
20260904092116 60 263 0.0 0.0 0.00 0.00 0.00 98 1017.2
20260904091612 60 229 0.0 0.0 0.00 0.00 0.00 98 1017.3
20260904091111 61 239 1.0 1.0 0.00 0.00 0.00 98 1017.1
20260904090607 60 263 1.0 2.0 0.00 0.00 0.00 98 1017.3
20260904085603 61 223 0.0 1.0 0.00 0.00 0.00 98 1017.0
20260904085057 61 232 0.0 0.0 0.00 0.00 0.00 98 1017.3
20260904084553 61 233 0.0 0.0 0.00 0.00 0.00 98 1017.1
20260904084049 61 232 0.0 0.0 0.00 0.00 0.00 98 1016.8
20260904083545 61 241 0.0 0.0 0.00 0.00 0.00 98 1017.1
20260904083040 61 229 0.0 0.0 0.00 0.00 0.00 98 1016.9
20260904082535 61 267 0.0 0.0 0.00 0.00 0.00 98 1017.1
20260904082030 60 265 0.0 0.0 0.00 0.00 0.00 98 1016.9
20260904081526 60 258 0.0 0.0 0.00 0.00 0.00 97 1017.2
20260904081021 60 274 0.0 0.0 0.00 0.00 0.00 98 1016.7
20260904080516 60 270 0.0 0.0 0.00 0.00 0.00 98 1016.9
20260904080013 60 253 0.0 0.0 0.00 0.00 0.00 98 1016.8
20260904075508 60 132 0.0 0.0 0.00 0.00 0.00 97 1016.5
20260904075003 60 283 0.0 0.0 0.00 0.00 0.00 97 1016.9
20260904074457 60 262 0.0 0.0 0.00 0.00 0.00 97 1016.8
20260904073952 60 271 0.0 0.0 0.00 0.00 0.00 97 1016.8
20260904073447 60 283 0.0 0.0 0.00 0.00 0.00 97 1017.1
20260904072943 61 258 0.0 0.0 0.00 0.00 0.00 97 1016.8
20260904072438 61 252 0.0 0.0 0.00 0.00 0.00 97 1016.6
20260904071933 62 237 0.0 0.0 0.00 0.00 0.00 97 1016.9
20260904071429 62 232 0.0 0.0 0.00 0.00 0.00 97 1016.8
20260904070929 61 222 0.0 0.0 0.00 0.00 0.00 97 1016.8
20260904070427 62 272 0.0 0.0 0.00 0.00 0.00 97 1016.9
20260904065923 61 239 0.0 0.0 0.00 0.00 0.00 97 1016.7
20260904065419 62 239 0.0 0.0 0.00 0.00 0.00 97 1016.8
20260904064918 62 275 0.0 0.0 0.00 0.00 0.00 97 1016.6
20260904064415 62 269 0.0 0.0 0.00 0.00 0.00 97 1016.9
20260904063910 62 250 0.0 0.0 0.00 0.00 0.00 97 1016.9
20260904063407 62 240 0.0 0.0 0.00 0.00 0.00 97 1017.0
20260904062901 62 253 0.0 0.0 0.00 0.00 0.00 97 1017.2
20260904062357 62 238 0.0 0.0 0.00 0.00 0.00 97 1017.0
20260904061853 62 246 0.0 0.0 0.00 0.00 0.00 96 1016.9
20260904061349 62 295 0.0 0.0 0.00 0.00 0.00 96 1016.9
20260904060845 62 329 0.0 0.0 0.00 0.00 0.00 96 1017.2
20260904060341 62 328 0.0 0.0 0.00 0.00 0.00 96 1017.4
20260904055836 62 325 0.0 0.0 0.00 0.00 0.00 96 1017.0
20260904055331 63 269 0.0 0.0 0.00 0.00 0.00 96 1017.2
20260904054827 63 294 0.0 0.0 0.00 0.00 0.00 96 1017.3
20260904054323 63 294 0.0 0.0 0.00 0.00 0.00 96 1017.2
20260904053818 63 262 0.0 1.0 0.00 0.00 0.00 96 1017.1
20260904053317 63 224 1.0 2.0 0.00 0.00 0.00 96 1017.4
20260904052813 63 197 2.0 2.0 0.00 0.00 0.00 96 1017.5
20260904052309 63 206 1.0 2.0 0.00 0.00 0.00 96 1017.5
20260904051805 63 233 1.0 1.0 0.00 0.00 0.00 96 1017.5
20260904051300 63 296 0.0 0.0 0.00 0.00 0.00 96 1017.4
20260904050750 63 296 0.0 0.0 0.00 0.00 0.00 95 1017.5
20260904050246 64 296 0.0 1.0 0.00 0.00 0.00 95 1017.6
20260904045741 64 229 1.0 2.0 0.00 0.00 0.00 95 1017.8
20260904045236 63 234 0.0 0.0 0.00 0.00 0.00 96 1017.4
20260904044730 63 236 0.0 0.0 0.00 0.00 0.00 95 1017.5
20260904044227 63 162 0.0 1.0 0.00 0.00 0.00 96 1017.5
20260904043723 63 13 0.0 0.0 0.00 0.00 0.00 95 1017.4
20260904043219 63 16 1.0 2.0 0.00 0.00 0.00 95 1017.4
20260904042714 63 126 0.0 0.0 0.00 0.00 0.00 95 1017.4
20260904042211 63 126 0.0 1.0 0.00 0.00 0.00 95 1017.4
20260904041710 64 261 0.0 1.0 0.00 0.00 0.00 95 1017.4
20260904041206 63 265 0.0 1.0 0.00 0.00 0.00 95 1017.6
20260904040702 63 236 0.0 0.0 0.00 0.00 0.00 95 1017.5
20260904040158 63 238 0.0 0.0 0.00 0.00 0.00 95 1017.6
20260904035653 63 281 0.0 0.0 0.00 0.02 0.02 95 1017.6
20260904035148 63 235 0.0 0.0 0.00 0.02 0.02 95 1017.5
20260904034647 63 236 0.0 0.0 0.00 0.02 0.02 95 1017.7
20260904034143 64 338 0.0 0.0 0.00 0.02 0.02 95 1017.6
20260904033639 64 314 0.0 0.0 0.00 0.02 0.02 95 1017.7
20260904033136 64 269 0.0 0.0 0.00 0.02 0.02 94 1017.8
20260904032631 64 242 0.0 0.0 0.00 0.02 0.02 94 1017.7
20260904032130 64 236 0.0 0.0 0.00 0.02 0.02 94 1017.8
20260904031630 64 228 0.0 0.0 0.00 0.02 0.02 94 1017.7
20260904031126 64 227 0.0 0.0 0.00 0.02 0.02 94 1017.9
20260904030621 64 228 0.0 0.0 0.00 0.02 0.02 95 1017.6
20260904030117 64 210 0.0 0.0 0.00 0.02 0.02 94 1017.7
20260904025613 64 197 0.0 0.0 0.00 0.02 0.02 95 1017.6
20260904025113 64 180 0.0 0.0 0.00 0.02 0.02 95 1017.5
20260904024608 65 248 0.0 0.0 0.00 0.02 0.02 93 1017.8
20260904024104 65 226 0.0 1.0 0.00 0.02 0.02 93 1017.8
20260904023559 65 218 0.0 1.0 0.00 0.02 0.02 93 1017.9
20260904023056 65 198 0.0 0.0 0.00 0.02 0.02 94 1017.8
20260904022556 66 134 0.0 0.0 0.00 0.02 0.02 93 1018.0
20260904022053 67 270 0.0 0.0 0.00 0.02 0.02 90 1018.1
20260904021548 67 277 0.0 0.0 0.00 0.02 0.02 90 1018.0
20260904021043 67 233 1.0 1.0 0.00 0.02 0.02 89 1018.1
20260904020538 67 251 0.0 1.0 0.00 0.02 0.02 89 1018.1
20260904020033 67 278 0.0 0.0 0.00 0.02 0.02 90 1018.3
20260904015527 67 230 1.0 1.0 0.00 0.02 0.02 90 1018.3
20260904015026 67 245 0.0 1.0 0.00 0.02 0.02 90 1018.0
20260904014520 67 265 0.0 0.0 0.00 0.02 0.02 92 1018.2
20260904014016 67 245 0.0 0.0 0.00 0.02 0.02 92 1017.9
20260904013512 67 272 0.0 0.0 0.00 0.02 0.02 91 1018.0
20260904013009 67 233 0.0 0.0 0.00 0.02 0.02 91 1018.0
20260904012508 68 280 0.0 0.0 0.00 0.02 0.02 90 1018.3
20260904012003 68 232 0.0 0.0 0.00 0.02 0.02 90 1018.3
20260904011457 67 234 0.0 0.0 0.00 0.02 0.02 91 1018.1
20260904010952 67 251 0.0 0.0 0.00 0.02 0.02 91 1018.0
20260904010449 67 277 0.0 0.0 0.00 0.02 0.02 90 1017.9
20260904005949 66 241 0.0 0.0 0.00 0.02 0.02 91 1018.1
20260904005444 67 296 0.0 0.0 0.00 0.02 0.02 90 1017.9
20260904004939 67 282 0.0 0.0 0.00 0.02 0.02 89 1017.7
20260904004436 68 269 0.0 0.0 0.00 0.02 0.02 89 1017.9
20260904003936 68 242 0.0 0.0 0.00 0.02 0.02 88 1017.9
20260904003432 67 254 0.0 0.0 0.00 0.02 0.02 88 1017.9
20260904002926 68 285 0.0 0.0 0.00 0.02 0.02 87 1017.7
20260904002423 68 286 0.0 0.0 0.00 0.02 0.02 86 1017.6
20260904001922 69 265 0.0 0.0 0.00 0.02 0.02 85 1017.9
20260904001418 69 225 1.0 1.0 0.00 0.02 0.02 85 1017.6
20260904000912 69 207 1.0 2.0 0.00 0.02 0.02 83 1017.6
20260904000412 70 229 0.0 1.0 0.00 0.02 0.02 83 1017.7
20260903235906 70 212 1.0 2.0 0.00 0.02 0.02 83 1017.5
20260903235403 70 213 1.0 2.0 0.00 0.02 0.02 82 1017.5
20260903234902 71 201 1.0 1.0 0.00 0.02 0.02 83 1017.5
20260903234358 71 216 0.0 1.0 0.00 0.02 0.02 82 1017.4
20260903233854 71 203 1.0 2.0 0.00 0.02 0.02 81 1017.4
20260903233350 71 184 2.0 2.0 0.00 0.02 0.02 81 1017.3
20260903232849 72 203 1.0 2.0 0.00 0.02 0.02 81 1017.4
20260903232345 72 208 1.0 2.0 0.00 0.02 0.02 82 1017.2
20260903231844 72 204 1.0 2.0 0.00 0.02 0.02 82 1017.3
20260903231339 72 203 1.0 2.0 0.00 0.02 0.02 82 1017.4
20260903230835 73 201 1.0 1.0 0.00 0.02 0.02 82 1017.6
20260903230330 73 190 1.0 1.0 0.00 0.02 0.02 81 1017.3
20260903225826 74 209 1.0 1.0 0.00 0.02 0.02 81 1017.3
20260903225322 75 215 1.0 1.0 0.00 0.02 0.02 81 1017.2
20260903224818 75 218 0.0 0.0 0.00 0.02 0.02 80 1017.4
20260903224314 76 263 0.0 0.0 0.00 0.02 0.02 79 1017.4
20260903223810 77 236 1.0 1.0 0.00 0.02 0.02 76 1017.2
20260903223308 77 260 0.0 0.0 0.00 0.02 0.02 76 1017.3
20260903222804 77 259 0.0 1.0 0.00 0.02 0.02 75 1017.3
20260903222305 77 257 0.0 1.0 0.00 0.02 0.02 74 1017.1
20260903221757 78 269 0.0 1.0 0.00 0.02 0.02 74 1017.2
20260903221256 78 272 0.0 2.0 0.00 0.02 0.02 75 1017.2
20260903220754 78 247 0.0 1.0 0.00 0.02 0.02 76 1017.2
20260903220249 78 265 1.0 2.0 0.00 0.02 0.02 75 1017.3
20260903215747 78 279 1.0 2.0 0.00 0.02 0.02 78 1017.5
20260903215244 78 331 1.0 2.0 0.00 0.02 0.02 77 1017.3
20260903214742 78 285 2.0 3.0 0.00 0.02 0.02 75 1017.1
20260903214239 79 331 1.0 5.0 0.00 0.02 0.02 76 1017.1
20260903213732 79 298 3.0 3.0 0.00 0.02 0.02 74 1017.2
20260903213228 79 274 4.0 7.0 0.00 0.02 0.02 73 1017.2
20260903212724 80 286 4.0 7.0 0.00 0.02 0.02 71 1017.5
20260903212220 80 321 3.0 6.0 0.00 0.02 0.02 70 1017.3
20260903211713 80 290 5.0 6.0 0.00 0.02 0.02 70 1017.1
20260903211210 80 311 2.0 3.0 0.00 0.02 0.02 71 1017.4
20260903210706 80 267 1.0 5.0 0.00 0.02 0.02 71 1017.4
20260903210201 80 331 1.0 6.0 0.00 0.02 0.02 70 1017.2
20260903205701 80 250 4.0 7.0 0.00 0.02 0.02 69 1017.6
20260903205200 80 275 5.0 7.0 0.00 0.02 0.02 67 1017.5
20260903204655 80 323 4.0 8.0 0.00 0.02 0.02 66 1017.3
20260903204152 80 273 5.0 9.0 0.00 0.02 0.02 65 1017.4
20260903203647 80 295 7.0 8.0 0.00 0.02 0.02 64 1017.7
20260903203142 80 310 5.0 11.0 0.00 0.02 0.02 65 1017.4
20260903202637 80 290 3.0 5.0 0.00 0.02 0.02 65 1017.3
20260903202132 80 340 3.0 6.0 0.00 0.02 0.02 67 1017.6
20260903201626 80 5 9.0 10.0 0.00 0.02 0.02 64 1017.3
20260903201126 80 290 5.0 9.0 0.00 0.02 0.02 66 1017.2
20260903200621 80 286 4.0 10.0 0.00 0.02 0.02 66 1017.6
20260903200116 80 298 3.0 10.0 0.00 0.02 0.02 67 1017.3
20260903195612 80 297 5.0 9.0 0.00 0.02 0.02 67 1017.3
20260903195107 81 289 5.0 7.0 0.00 0.02 0.02 70 1017.4
20260903194602 80 289 5.0 7.0 0.00 0.02 0.02 71 1017.5
20260903194057 79 321 6.0 13.0 0.00 0.02 0.02 66 1017.6
20260903193553 79 291 2.0 5.0 0.00 0.02 0.02 78 1017.6
20260903193048 79 259 7.0 8.0 0.00 0.02 0.02 75 1017.7
20260903192545 78 299 4.0 5.0 0.00 0.02 0.02 77 1017.9
20260903192040 79 301 7.0 11.0 0.00 0.02 0.02 77 1017.8
20260903191537 79 319 7.0 10.0 0.00 0.02 0.02 78 1017.9
20260903191037 80 298 5.0 6.0 0.00 0.02 0.02 78 1017.7
20260903190536 80 340 7.0 8.0 0.00 0.02 0.02 77 1017.4
20260903190030 80 321 5.0 8.0 0.00 0.02 0.02 78 1017.8
20260903185526 79 357 2.0 5.0 0.00 0.02 0.02 81 1017.6
20260903185021 79 275 5.0 8.0 0.00 0.02 0.02 81 1017.8
20260903184518 78 306 8.0 10.0 0.00 0.02 0.02 81 1018.0
20260903184018 78 292 5.0 13.0 0.00 0.02 0.02 82 1018.0
20260903183517 78 2 4.0 7.0 0.00 0.02 0.02 82 1018.0
20260903183012 76 307 3.0 6.0 0.00 0.02 0.02 85 1018.0
20260903182510 78 352 5.0 7.0 0.00 0.02 0.02 85 1018.2
20260903182006 78 329 1.0 3.0 0.00 0.02 0.02 86 1018.0
20260903181500 77 353 3.0 7.0 0.00 0.02 0.02 87 1018.0
20260903180959 78 347 2.0 6.0 0.00 0.02 0.02 86 1018.0
20260903180455 77 340 2.0 5.0 0.00 0.02 0.02 89 1018.3
20260903175954 77 5 4.0 6.0 0.00 0.02 0.02 89 1018.2
20260903175448 76 342 3.0 5.0 0.00 0.02 0.02 89 1018.2
20260903174947 75 319 3.0 7.0 0.00 0.02 0.02 89 1018.3